Weather in Prudhoe Bay

United States     70°18′27″N   148°36′37″W
temp.,
°C
wind,
m/s
gust,
m/s
humid.,
%
clouds,
%
prec.,
mm/h
press.,
hPa
HPBL,
m
18 september, sat
sat1801:000wsw5779100 0.1 1003585
04:00−1sw5797100 1.6 1004379
07:00−1wsw5795100 0.5 1004271
10:00−1wsw459196 0.6 1004277
13:00+1sw337533 0.0 1004572
16:00+2ssw33645 0.0 1004720
19:00+1sse45775 0.0 1003162
22:00−2sse448235 0.0 100171
19 september, sun
sun1901:00−2sse467870 0.0 1000125
04:00−1s3375100 0.0 99977
07:00−1w3598100 0.6 999286
10:00−2w6994100 2.9 1001596
13:00−1wsw7973100 0.3 1002756
16:000sw6869100 0.3 10021060
19:00−1sw7117911 0.0 1003389
22:00−3sw713835 0.0 1003284
20 september, mon
mon2001:00−4sw813835 0.0 1004286
04:00−5sw814826 0.0 1004321
07:00−5sw8148380 0.0 1005367
10:00−4sw8138663 0.0 1006466
13:00−1sw8118385 0.0 1007757
16:000wsw71180100 0.1 10071242
19:00−1sw7108298 0.2 1007549
22:00−3sw7128835 0.3 1008330
21 september, tue
tue2101:00−4sw713905 0.0 1008352
04:00−4sw8149087 0.0 1008398
07:00−3sw81392100 0.1 1008417
10:00−2wsw7109180 0.1 1008522
13:00−1wsw787987 0.0 1009846
16:000wsw697695 0.1 10101141
19:00−1wsw588589 0.1 1010383
22:00−2sw7119389 0.1 1011417
22 september, wed
wed2201:00−2wsw7119488 0.2 1012436
04:00−2wsw8129488 0.4 1013436
07:00−3wsw7119490 0.2 1015413
10:00−2wsw7109280 0.3 1016449
13:00−1wsw798589 0.1 1018656
16:00−1wsw6882100 0.1 1018910
19:00−2wsw588798 0.1 1019376
22:00−3sw589187 0.1 1019299